EW9592 Weather Reports


Display with metric or nautical units.
time (UTC)temp
F
wind
direction
speed
MPH
gust
MPH
rain 1hr
in
rain 24hr
in
rain mn
in
humidity
%
barometer
mb
20260904164522 93 343 0.0 1.0 0.00 0.00 0.00 63 1016.5
20260904163028 93 355 0.0 2.0 0.00 0.00 0.00 64 1016.5
20260904161517 92 326 0.0 2.0 0.00 0.00 0.00 67 1016.5
20260904160015 92 360 0.0 1.0 0.00 0.00 0.00 71 1016.6
20260904154510 90 360 0.0 1.0 0.00 0.00 0.00 71 1016.5
20260904153016 88 1 0.0 1.0 0.00 0.00 0.00 79 1016.5
20260904151501 86 201 0.0 1.0 0.00 0.00 0.00 84 1016.5
20260904150123 85 78 0.0 0.0 0.00 0.00 0.00 85 1016.4
20260904144555 83 77 0.0 1.0 0.00 0.00 0.00 88 1016.5
20260904143049 81 200 0.0 1.0 0.00 0.00 0.00 90 1016.6
20260904141547 80 151 0.0 0.0 0.00 0.00 0.00 91 1016.5
20260904140042 78 151 0.0 0.0 0.00 0.00 0.00 91 1016.5
20260904134547 77 155 0.0 0.0 0.00 0.00 0.00 92 1016.4
20260904133034 76 155 0.0 0.0 0.00 0.00 0.00 92 1016.5
20260904131532 75 155 0.0 0.0 0.00 0.00 0.00 92 1016.5
20260904130036 74 155 0.0 0.0 0.00 0.00 0.00 92 1016.5
20260904124532 73 155 0.0 0.0 0.00 0.00 0.00 92 1016.5
20260904123029 73 155 0.0 0.0 0.00 0.00 0.00 92 1016.3
20260904121527 72 155 0.0 0.0 0.00 0.00 0.00 92 1016.1
20260904120027 72 155 0.0 0.0 0.00 0.00 0.00 92 1016.0
20260904114532 72 155 0.0 0.0 0.00 0.00 0.00 92 1015.8
20260904113022 72 155 0.0 0.0 0.00 0.00 0.00 92 1015.7
20260904111527 72 155 0.0 0.0 0.00 0.00 0.00 92 1015.6
20260904110024 72 155 0.0 0.0 0.00 0.00 0.00 92 1015.6
20260904104522 72 155 0.0 0.0 0.00 0.00 0.00 92 1015.4
20260904103020 72 155 0.0 0.0 0.00 0.00 0.00 92 1015.5
20260904101520 72 155 0.0 0.0 0.00 0.00 0.00 92 1015.4
20260904100019 72 155 0.0 0.0 0.00 0.00 0.00 92 1015.4
20260904094533 72 155 0.0 0.0 0.00 0.00 0.00 91 1015.2
20260904093018 73 155 0.0 0.0 0.00 0.00 0.00 91 1015.3
20260904091516 73 155 0.0 0.0 0.00 0.00 0.00 91 1015.3
20260904090016 73 155 0.0 0.0 0.00 0.00 0.00 91 1015.3
20260904084517 73 155 0.0 0.0 0.00 0.00 0.00 91 1015.2
20260904083026 73 155 0.0 0.0 0.00 0.00 0.00 91 1015.3
20260904081514 73 155 0.0 0.0 0.00 0.00 0.00 91 1015.3
20260904080013 73 155 0.0 0.0 0.00 0.00 0.00 91 1015.2
20260904074511 73 155 0.0 0.0 0.00 0.00 0.00 91 1015.0
20260904073012 74 155 0.0 0.0 0.00 0.00 0.00 91 1015.1
20260904071510 74 155 0.0 0.0 0.00 0.00 0.00 91 1015.1
20260904070008 74 155 0.0 0.0 0.00 0.00 0.00 91 1015.2
20260904064507 74 155 0.0 0.0 0.00 0.00 0.00 91 1015.3
20260904063005 74 155 0.0 0.0 0.00 0.00 0.00 91 1015.3
20260904061503 74 155 0.0 0.0 0.00 0.00 0.00 91 1015.3
20260904060003 74 155 0.0 0.0 0.00 0.00 0.00 91 1015.5
20260904054502 75 155 0.0 0.0 0.00 0.00 0.00 91 1015.6
20260904053059 75 155 0.0 0.0 0.00 0.00 0.00 91 1015.6
20260904051606 75 155 0.0 0.0 0.00 0.00 0.00 91 1015.6
20260904050059 75 155 0.0 0.0 0.00 0.00 0.00 91 1015.6
20260904044556 75 155 0.0 0.0 0.00 0.00 0.00 91 1015.6
20260904043056 75 155 0.0 0.0 0.00 0.00 0.00 91 1015.5
20260904041553 76 155 0.0 0.0 0.00 0.00 0.00 91 1015.5
20260904034554 76 155 0.0 0.0 0.00 0.00 0.00 91 1015.7
20260904033053 76 155 0.0 0.0 0.00 0.00 0.00 91 1015.8
20260904031550 77 155 0.0 0.0 0.00 0.00 0.00 91 1015.8
20260904030055 77 155 0.0 0.0 0.00 0.00 0.00 91 1015.8
20260904024553 77 155 0.0 0.0 0.00 0.00 0.00 90 1015.9
20260904023057 77 155 0.0 0.0 0.00 0.00 0.00 90 1015.8
20260904021547 77 155 0.0 0.0 0.00 0.00 0.00 90 1015.9
20260904020052 78 155 0.0 0.0 0.00 0.00 0.00 90 1015.9
20260904014558 78 155 0.0 0.0 0.00 0.00 0.00 90 1015.8
20260904013049 78 155 0.0 0.0 0.00 0.00 0.00 89 1015.6
20260904011547 79 155 0.0 0.0 0.00 0.00 0.00 89 1015.6
20260904010051 79 155 0.0 0.0 0.00 0.00 0.00 89 1015.5
20260904004548 80 155 0.0 0.0 0.00 0.00 0.00 89 1015.2
20260904003044 81 155 0.0 0.0 0.00 0.00 0.00 88 1015.0
20260904001645 82 155 0.0 0.0 0.00 0.00 0.00 88 1014.8
20260904000044 83 155 0.0 0.0 0.00 0.00 0.00 88 1014.7
20260903234543 83 155 0.0 0.0 0.00 0.00 0.00 87 1014.6
20260903233046 84 154 0.0 0.0 0.00 0.00 0.00 86 1014.5
20260903231548 85 153 0.0 0.0 0.00 0.00 0.00 84 1014.4
20260903230043 86 153 0.0 0.0 0.00 0.00 0.00 84 1014.4
20260903224559 87 153 0.0 0.0 0.00 0.00 0.00 82 1014.4
20260903223040 88 153 0.0 0.0 0.00 0.00 0.00 80 1014.4
20260903221540 89 154 0.0 0.0 0.00 0.00 0.00 76 1014.5
20260903220045 90 153 0.0 0.0 0.00 0.00 0.00 74 1014.4
20260903214550 91 153 0.0 0.0 0.00 0.00 0.00 75 1014.5
20260903213040 91 128 0.0 1.0 0.00 0.00 0.00 73 1014.6
20260903211540 91 127 0.0 0.0 0.00 0.00 0.00 76 1014.6
20260903210045 89 103 0.0 0.0 0.00 0.00 0.00 76 1014.7
20260903204542 90 104 0.0 0.0 0.00 0.00 0.00 74 1014.9
20260903203031 91 105 0.0 0.0 0.00 0.00 0.00 78 1015.1
20260903201532 90 104 0.0 0.0 0.00 0.00 0.00 76 1015.2
20260903200031 89 105 0.0 0.0 0.00 0.00 0.00 75 1015.4
20260903194528 90 104 0.0 0.0 0.00 0.00 0.00 73 1015.5
20260903193026 91 105 0.0 1.0 0.00 0.00 0.00 72 1015.6
20260903191531 92 133 0.0 1.0 0.00 0.00 0.00 67 1015.7
20260903190022 93 153 0.0 1.0 0.00 0.00 0.00 62 1015.9
20260903184521 93 18 0.0 2.0 0.00 0.00 0.00 59 1016.0
20260903183018 93 112 0.0 2.0 0.00 0.00 0.00 61 1016.1
20260903181515 92 51 0.0 1.0 0.00 0.00 0.00 64 1016.3
20260903180014 93 4 0.0 1.0 0.00 0.00 0.00 67 1016.4
20260903174512 91 350 0.0 1.0 0.00 0.00 0.00 63 1016.5
20260903173010 91 305 0.0 1.0 0.00 0.00 0.00 67 1016.7
20260903171509 92 13 0.0 2.0 0.00 0.00 0.00 62 1016.8
20260903170009 92 63 0.0 2.0 0.00 0.00 0.00 60 1016.9